Huntington, WV

1:12 PM EDT on July 27, 2017 (GMT -0400)
Tri-State / Ferguson

Weather History for KHTS - August, 2013

Change the Weather History Date:

Tuesday, August 6, 2013

  Actual Average Record
Temperature  
Mean Temperature 74 °F 76 °F  
Max Temperature 84 °F 86 °F 102 °F (1918)
Min Temperature 63 °F 65 °F 48 °F (1957)
Degree Days  
Heating Degree Days 0 0  
Month to date heating degree days 0 0  
Since 1 June heating degree days 0 12  
Since 1 July heating degree days 0 0  
Cooling Degree Days 9 11  
Month to date cooling degree days 45 66  
Year to date cooling degree days 809 736  
Since 1 June cooling degree days 639 623  
Growing Degree Days 24 (Base 50)    
Moisture  
Dew Point 63 °F    
Average Humidity 72    
Maximum Humidity 97    
Minimum Humidity 47    
Precipitation  
Precipitation 0.00 in 0.12 in 1.41 in (2008)
Month to date precipitation 0.03 0.77  
Year to date precipitation 27.27 27.28  
Snow  
Snow 0.00 in - - ()
Month to date snowfall 0.0  
Since 1 September snowfall 12.4  
Snow Depth 0.00 in    
Sea Level Pressure  
Sea Level Pressure 29.97 in    
Wind  
Wind Speed 1 mph (ESE)    
Max Wind Speed 8 mph    
Max Gust Speed 12 mph    
Visibility 10 miles    
Events      
T = Trace of Precipitation, MM = Missing Value Source: NWS Daily Summary

Daily Weather History Graph

Daily Weather History Graph

Search for Another Location

Airport or City:

Trip Planner

Search our weather history database for the weather conditions in past years. The results will help you decide how hot, cold, wet, or windy it might be!

Date:

Astronomy

Aug. 06, 2013 Rise Set
Actual Time 6:36 AM EDT 8:34 PM EDT
Civil Twilight 6:08 AM EDT 9:03 PM EDT
Nautical Twilight 5:32 AM EDT 9:38 PM EDT
Astronomical Twilight 4:54 AM EDT 10:16 PM EDT
Moon 6:26 AM EDT (8/6) 8:09 PM EDT (8/6)
Length of Visible Light 14h 55m
Length of Day
13h 57m
Waning Crescent, 0% of the Moon is Illuminated
Aug 6
Waning Crescent
Aug 6
New
Aug 14
First Quarter
Aug 20
Full
Aug 28
Last Quarter

Hourly Weather History & Observations

Time (EDT) Temp. Heat Index Dew Point Humidity Pressure Visibility Wind Dir Wind Speed Gust Speed Precip Events Conditions
12:51 AM 66.0 °F - 60.1 °F 81% 29.99 in 10.0 mi Calm Calm - N/A   Overcast
1:51 AM 64.9 °F - 60.1 °F 84% 29.99 in 10.0 mi Calm Calm - N/A   Mostly Cloudy
2:51 AM 66.0 °F - 60.1 °F 81% 29.97 in 10.0 mi Calm Calm - N/A   Overcast
3:51 AM 66.0 °F - 60.1 °F 81% 29.97 in 10.0 mi Calm Calm - 0.01 in   Overcast
4:51 AM 64.9 °F - 60.1 °F 84% 29.97 in 10.0 mi Calm Calm - N/A   Overcast
5:51 AM 64.9 °F - 60.1 °F 84% 29.96 in 10.0 mi Calm Calm - N/A   Overcast
6:51 AM 64.0 °F - 59.0 °F 84% 29.98 in 10.0 mi ENE 4.6 mph - N/A   Partly Cloudy
7:51 AM 64.9 °F - 59.0 °F 81% 30.00 in 10.0 mi ENE 4.6 mph - N/A   Clear
8:51 AM 66.9 °F - 59.0 °F 76% 30.01 in 10.0 mi Calm Calm - N/A   Overcast
9:51 AM 70.0 °F - 60.1 °F 71% 30.01 in 10.0 mi Calm Calm - N/A   Scattered Clouds
10:51 AM 73.0 °F - 61.0 °F 66% 30.01 in 10.0 mi ESE 4.6 mph - N/A   Scattered Clouds
11:51 AM 78.1 °F - 63.0 °F 60% 29.99 in 10.0 mi Variable 3.5 mph - N/A   Scattered Clouds
12:51 PM 80.1 °F 81.5 °F 63.0 °F 56% 29.99 in 10.0 mi ESE 3.5 mph - N/A   Clear
1:51 PM 82.0 °F 83.1 °F 63.0 °F 52% 29.97 in 10.0 mi Variable 3.5 mph - N/A   Partly Cloudy
2:51 PM 82.9 °F 83.3 °F 61.0 °F 47% 29.96 in 10.0 mi SSW 6.9 mph - N/A   Clear
3:51 PM 82.0 °F 83.1 °F 63.0 °F 52% 29.96 in 10.0 mi South 3.5 mph - N/A   Overcast
4:51 PM 82.0 °F 83.4 °F 64.0 °F 54% 29.96 in 10.0 mi Calm Calm - N/A   Mostly Cloudy
5:51 PM 81.0 °F 82.7 °F 64.9 °F 58% 29.96 in 10.0 mi Calm Calm - N/A   Mostly Cloudy
6:51 PM 82.0 °F 84.5 °F 66.9 °F 60% 29.95 in 10.0 mi Calm Calm - N/A   Mostly Cloudy
7:51 PM 80.1 °F 82.7 °F 68.0 °F 67% 29.94 in 10.0 mi Calm Calm - N/A   Clear
8:51 PM 77.0 °F - 66.9 °F 71% 29.94 in 10.0 mi Calm Calm - N/A   Clear
9:51 PM 73.0 °F - 69.1 °F 87% 29.95 in 10.0 mi Calm Calm - N/A   Clear
10:51 PM 73.0 °F - 69.1 °F 87% 29.95 in 9.0 mi Calm Calm - N/A   Mostly Cloudy
11:51 PM 70.0 °F - 68.0 °F 93% 29.95 in 6.0 mi Calm Calm - N/A   Scattered Clouds